Skip to content
You are here: Gozo Weather
Gozo Weather Station for the very latest live weather conditions from Gozo and Malta
 
 TIME   TEMPERATURE   WINDSPEED   DIRECTION   HUMIDITY   BAROMETER   RAINFALL 
8:40 13.0°C (55.4°F) 5.6 kmh (3.5 mph) NNW 66% 1020.0hPa (30.12 inHg) 0.0mm (0.00 in.)
7:40 13.3°C (55.9 °F) 5.6 kmh (3.5 mph) NNW 65% 1020.0hPa (30.12 inHg) 0.0mm (0.00 in.)
6:40 13.6°C (56.5 °F) 5.6 kmh (3.5 mph) NNW 64% 1020.0hPa (30.12 inHg) 0.0mm (0.00 in.)
5:40 16.3°C (61.3 °F) 11.1 kmh (6.9 mph) NNW 63% 1020.0hPa (30.12 inHg) 0.0mm (0.00 in.)
4:40 16.6°C (61.9 °F) 7.4 kmh (4.6 mph) NNW 62% 1020.0hPa (30.12 inHg) 0.0mm (0.00 in.)
3:40 16.9°C (62.4 °F) 13.0 kmh (8.1 mph) NNW 61% 1020.0hPa (30.12 inHg) 0.0mm (0.00 in.)
2:40 17.0°C (62.6 °F) 13.0 kmh (8.1 mph) NNW 61% 1020.0hPa (30.12 inHg) 0.0mm (0.00 in.)
1:40 17.0°C (62.6 °F) 13.0 kmh (8.1 mph) NNW 62% 1021.0hPa (30.15 inHg) 0.0mm (0.00 in.)
12:40 16.8°C (62.2 °F) 11.1 kmh (6.9 mph) NNW 63% 1021.0hPa (30.15 inHg) 0.0mm (0.00 in.)
11:40 16.5°C (61.7 °F) 11.1 kmh (6.9 mph) NNW 64% 1021.0hPa (30.15 inHg) 0.0mm (0.00 in.)
10:40 15.9°C (60.6 °F) 0.0 kmh (0.0 mph) NNE 64% 1022.0hPa (30.18 inHg) 0.0mm (0.00 in.)
9:38 15.5°C (59.9 °F) 0.0 kmh (0.0 mph) NNW 66% 1021.3hPa (30.16 inHg) 0.0mm (0.00 in.)
6:54 10.2°C (50.4 °F) 0.0 kmh (0.0 mph) NNW 64% 1021.0hPa (30.15 inHg) 0.0mm (0.00 in.)
5:54 10.2°C (50.4 °F) 0.0 kmh (0.0 mph) NNW 64% 1021.0hPa (30.15 inHg) 0.0mm (0.00 in.)
4:54 10.3°C (50.5 °F) 0.0 kmh (0.0 mph) W 63% 1021.0hPa (30.15 inHg) 0.0mm (0.00 in.)
3:54 10.4°C (50.7 °F) 0.0 kmh (0.0 mph) NW 62% 1021.0hPa (30.15 inHg) 0.0mm (0.00 in.)
2:54 10.4°C (50.7 °F) 0.0 kmh (0.0 mph) NNW 61% 1021.0hPa (30.15 inHg) 0.0mm (0.00 in.)
1:54 10.4°C (50.7 °F) 0.0 kmh (0.0 mph) NW 61% 1021.0hPa (30.15 inHg) 0.0mm (0.00 in.)
12:54 10.4°C (50.7 °F) 0.0 kmh (0.0 mph) NW 60% 1021.0hPa (30.15 inHg) 0.0mm (0.00 in.)
11:54 10.5°C (50.9 °F) 0.0 kmh (0.0 mph) NW 60% 1021.0hPa (30.15 inHg) 0.0mm (0.00 in.)
10:54 10.7°C (51.3 °F) 0.0 kmh (0.0 mph) NW 59% 1021.0hPa (30.15 inHg) 0.0mm (0.00 in.)
9:54 10.9°C (51.6 °F) 0.0 kmh (0.0 mph) NNW 58% 1021.0hPa (30.15 inHg) 0.0mm (0.00 in.)
8:54 10.8°C (51.4 °F) 0.0 kmh (0.0 mph) NNW 57% 1021.0hPa (30.15 inHg) 0.0mm (0.00 in.)
7:54 11.0°C (51.8 °F) 0.0 kmh (0.0 mph) NW 56% 1021.0hPa (30.15 inHg) 0.0mm (0.00 in.)

You need the latest version of Flash Player to view some of our content.


Why not download and install the latest version now?
It will only take you a moment and will ensure that you can view all the latest flash designed websites.

Translate this page

Animated Satellite

Click per aprire http://www.gozo.ws/Animation.php
copyright 2017 EUMETSAT

European Lightning Activity


Please click image for full size

Sponsored Links